Location: Cape Cod Imaging Station
(41.7417°N, 70.1583°W)
Time: 09:14:24
(UTC-05:00)

Amateur Radio Satellites - All Passes

Search period start: 15 December 2017 08:44
Search period end: 16 December 2017 08:44
Location: Cape Cod Imaging Station, 41.7417°N, 70.1583°W

Satellite Date Start Highest point End Downlink Frequencies (MHz)
Time Altitude Azimuth
AO-73 15 Dec 08:47:52 08:51:40 30° 290° (WNW) 08:55:31 145.935
PRISM 15 Dec 09:03:07 09:07:06 47° 72° (ENE) 09:11:06 437.425
DELFI C3 15 Dec 09:22:58 09:26:56 86° 284° (WNW) 09:30:51 145.870
Max Valier Satellite 15 Dec 09:25:11 09:28:55 68° 101° (E) 09:32:38 145.860
POLYITAN 1 15 Dec 09:31:18 09:32:47 12° 62° (ENE) 09:34:16 437.675
EO-88 15 Dec 09:51:44 09:55:25 81° 281° (W) 09:59:04 145.990 - 145.960
QB50P2 15 Dec 09:54:56 09:58:16 23° 68° (ENE) 10:01:37 145.880/145.840
AIST 2D 15 Dec 09:58:44 10:02:12 68° 75° (ENE) 10:05:44 435.315
DUCHIFAT 1 15 Dec 09:59:33 10:02:23 18° 66° (ENE) 10:05:14 145.980
ISS 15 Dec 10:05:46 10:08:14 20° 133° (SE) 10:10:42 437.550
TIGRISAT 15 Dec 10:12:22 10:13:10 10° 270° (W) 10:13:58 435.000
LO-87 15 Dec 10:20:35 10:23:31 24° 96° (E) 10:26:26 145.935 - 145.965
NANOSAT C BR1 15 Dec 10:25:09 10:29:02 39° 71° (ENE) 10:32:55 145.865
NO-84 15 Dec 10:35:30 10:37:08 12° 16° (NNE) 10:38:47 435.350 FM
BUGSAT 1 15 Dec 10:39:09 10:40:25 11° 62° (ENE) 10:41:40 437.445
PRISM 15 Dec 10:40:17 10:42:36 14° 268° (W) 10:44:55 437.425
EO-79 15 Dec 10:40:38 10:44:47 67° 75° (ENE) 10:48:57 145.935-145.965
ESTCUBE 1 15 Dec 10:45:18 10:49:33 38° 98° (E) 10:53:46 437.505/2401.250
nSIGHT-1 15 Dec 10:56:40 10:59:52 86° 144° (SE) 11:03:06 .
POLYITAN 1 15 Dec 11:03:51 11:07:59 66° 258° (WSW) 11:12:10 437.675
Gurwin Techsat 1B 15 Dec 11:08:52 11:11:40 15° 59° (ENE) 11:14:28 435.225
AO-91 15 Dec 11:14:53 11:18:03 18° 67° (ENE) 11:21:02 145.960
SPROUT 15 Dec 11:15:29 11:18:30 19° 93° (E) 11:21:30 437.525
QB50P2 15 Dec 11:30:14 11:33:54 29° 264° (W) 11:37:36 145.880/145.840
DUCHIFAT 1 15 Dec 11:33:51 11:37:45 38° 262° (W) 11:41:39 145.980
ISS 15 Dec 11:41:17 11:44:29 50° 330° (NNW) 11:47:43 437.550
LO-87 15 Dec 11:54:08 11:56:45 20° 291° (WNW) 11:59:23 145.935 - 145.965
AO-7 15 Dec 11:54:21 11:58:34 15° 45° (NE) 12:02:47 .
Oscar 19 15 Dec 11:57:58 12:02:55 51° 71° (ENE) 12:07:55 437.125/150
NANOSAT C BR1 15 Dec 12:02:05 12:04:52 17° 267° (W) 12:07:40 145.865
BUGSAT 1 15 Dec 12:11:14 12:15:14 63° 259° (W) 12:19:14 437.445
NO-84 15 Dec 12:11:41 12:15:11 38° 34° (NE) 12:18:56 435.350 FM
VELOX 1 15 Dec 12:15:32 12:19:50 50° 100° (E) 12:24:05 145.980
YUBILEINY 15 Dec 12:17:33 12:24:38 26° 66° (ENE) 12:31:39 435.215
ESTCUBE 1 15 Dec 12:22:39 12:26:05 22° 294° (WNW) 12:29:31 437.505/2401.250
RS-15 15 Dec 12:26:23 12:35:42 26° 101° (E) 12:44:58 29.354- 29.394
nSIGHT-1 15 Dec 12:33:54 12:36:25 21° 342° (NNW) 12:38:56 .
Gurwin Techsat 1B 15 Dec 12:45:35 12:50:55 81° 258° (WSW) 12:56:15 435.225
AO-91 15 Dec 12:49:27 12:54:13 50° 260° (W) 12:58:34 145.960
50 SAT 15 Dec 12:49:40 12:52:07 20° 96° (E) 12:54:31 437.505
SPROUT 15 Dec 12:50:35 12:54:29 37° 289° (WNW) 12:58:24 437.525
UKube-1 15 Dec 12:52:35 12:55:15 16° 93° (E) 12:57:54 .
M-CUBED/EXP-1 PRIME 15 Dec 13:08:28 13:11:51 22° 60° (ENE) 13:15:22 437.505
DX 1 15 Dec 13:08:52 13:12:58 39° 99° (E) 13:17:02 434.975-435.025
ITAMSAT 1 15 Dec 13:13:57 13:17:09 17° 60° (ENE) 13:20:21 435.822/435.867
ISS 15 Dec 13:19:18 13:21:33 17° 349° (N) 13:23:48 437.550
Oscar 19 15 Dec 13:38:54 13:42:31 19° 268° (W) 13:46:10 437.125/150
AO-7 15 Dec 13:41:33 13:49:40 62° 66° (ENE) 13:57:52 .
NO-84 15 Dec 13:48:59 13:52:24 30° 230° (SW) 13:56:00 435.350 FM
VELOX 1 15 Dec 13:53:08 13:55:51 16° 297° (WNW) 13:58:33 145.980
nSIGHT-1 15 Dec 14:11:39 14:13:31 14° 3° (N) 14:15:22 .
YUBILEINY 15 Dec 14:13:29 14:22:15 71° 267° (W) 14:30:56 435.215
SO-50 15 Dec 14:17:16 14:21:18 35° 115° (ESE) 14:25:24 436.795
MOZHAYETS 4 15 Dec 14:19:02 14:23:11 32° 96° (E) 14:27:20
50 SAT 15 Dec 14:21:43 14:23:55 18° 291° (WNW) 14:26:06 437.505
UKube-1 15 Dec 14:27:22 14:31:29 45° 288° (WNW) 14:35:34 .
RS-15 15 Dec 14:34:20 14:46:42 87° 302° (WNW) 14:59:00 29.354- 29.394
M-CUBED/EXP-1 PRIME 15 Dec 14:41:49 14:45:54 41° 257° (WSW) 14:50:14 437.505
DX 1 15 Dec 14:45:45 14:48:52 20° 295° (WNW) 14:51:58 434.975-435.025
BEESAT 15 Dec 14:47:19 14:51:49 41° 99° (E) 14:56:18 436.000
ITAMSAT 1 15 Dec 14:50:51 14:56:02 68° 258° (WSW) 15:01:14 435.822/435.867
ISS 15 Dec 14:56:48 14:58:59 16° 9° (N) 15:01:10 437.550
ITUPSAT 1 15 Dec 15:16:04 15:20:52 79° 103° (ESE) 15:25:39 437.325
DOVE 4 15 Dec 15:35:42 15:40:56 68° 75° (ENE) 15:46:01 437.250
AO-7 15 Dec 15:35:54 15:42:53 30° 264° (W) 15:49:56 .
CUBESAT XI-V 15 Dec 15:44:24 15:49:05 60° 101° (E) 15:53:43 437.345
nSIGHT-1 15 Dec 15:47:43 15:50:32 27° 23° (NNE) 15:53:19 .
MOZHAYETS 4 15 Dec 15:56:22 16:00:12 26° 293° (WNW) 16:04:01
SO-50 15 Dec 15:57:54 16:01:47 28° 313° (NW) 16:05:43 436.795
LilacSat-2 15 Dec 16:01:08 16:03:55 20° 67° (ENE) 16:06:43 437.200
KKS-1 15 Dec 16:02:55 16:05:47 17° 93° (E) 16:08:36 437.445
XW-2D 15 Dec 16:13:42 16:16:51 25° 70° (ENE) 16:20:03 145.860 - 145.880
YUBILEINY 15 Dec 16:13:57 16:17:18 13° 287° (WNW) 16:20:38 435.215
NUDT-PHONESAT 15 Dec 16:14:42 16:17:08 17° 67° (ENE) 16:19:35 437.300
KAITUO 1B 15 Dec 16:19:44 16:22:35 21° 68° (ENE) 16:25:27 145.475/437.950
CUTE-I 15 Dec 16:23:45 16:28:35 35° 68° (ENE) 16:33:26 437.470
BEESAT 15 Dec 16:25:41 16:29:20 22° 295° (WNW) 16:32:58 436.000
XW-2B 15 Dec 16:29:13 16:32:42 37° 72° (ENE) 16:36:14 145.730 - 145.750
ISS 15 Dec 16:32:55 16:36:06 44° 29° (NNE) 16:39:15 437.550
PCSat 15 Dec 16:35:54 16:38:04 12° 102° (ESE) 16:40:15 145.827
XW-2F 15 Dec 16:40:15 16:43:52 47° 74° (ENE) 16:47:33 145.980 - 146.000
STARS 15 Dec 16:43:01 16:45:58 18° 93° (E) 16:48:53 437.465
O/OREOS (USA 219) 15 Dec 16:46:37 16:50:28 27° 58° (ENE) 16:54:16 437.305
RS-15 15 Dec 16:50:13 17:01:05 34° 329° (NNW) 17:11:47 29.354- 29.394
ITUPSAT 1 15 Dec 16:56:02 16:58:02 13° 300° (WNW) 17:00:02 437.325
XW-2C 15 Dec 16:56:21 17:00:07 85° 77° (ENE) 17:03:57 145.795 - 145.815
HO-68 15 Dec 17:06:34 17:13:22 48° 66° (ENE) 17:20:11 435.675
UWE-3 15 Dec 17:14:21 17:15:19 11° 62° (ENE) 17:16:18 435.000/436.395/437.385
CUBEBUG 2 15 Dec 17:14:34 17:17:36 20° 67° (ENE) 17:20:37 437.445
DOVE 4 15 Dec 17:15:58 17:18:58 15° 270° (W) 17:21:57 437.250
CUBESAT XI-V 15 Dec 17:23:11 17:25:56 16° 297° (WNW) 17:28:40 437.345
nSIGHT-1 15 Dec 17:23:45 17:26:51 47° 220° (SW) 17:29:57 .
SEEDS 15 Dec 17:26:18 17:29:52 27° 69° (ENE) 17:33:27 437.485
LilacSat-2 15 Dec 17:34:38 17:37:59 29° 264° (W) 17:41:23 437.200
KKS-1 15 Dec 17:38:19 17:42:33 45° 289° (WNW) 17:46:44 437.445
AAUSAT CUBESAT 2 15 Dec 17:42:50 17:45:41 18° 66° (ENE) 17:48:31 437.432
NUDT-PHONESAT 15 Dec 17:47:23 17:50:43 32° 263° (W) 17:54:04 437.300
XW-2D 15 Dec 17:48:01 17:50:58 22° 266° (W) 17:53:58 145.860 - 145.880
CUTE 1.7 + AOD 2 15 Dec 17:50:31 17:54:45 84° 79° (E) 17:59:04 437.475
KAITUO 1B 15 Dec 17:53:12 17:56:23 26° 264° (W) 17:59:36 145.475/437.950
CUTE-I 15 Dec 18:03:56 18:08:38 30° 264° (W) 18:13:20 437.470
XW-2B 15 Dec 18:04:48 18:07:02 15° 268° (W) 18:09:15 145.730 - 145.750
XW-2A 15 Dec 18:05:55 18:08:46 26° 71° (ENE) 18:11:38 145.665 - 145.685
AO-73 15 Dec 18:08:07 18:11:04 19° 66° (ENE) 18:14:01 145.935
STRAND 1 15 Dec 18:09:35 18:13:09 19° 92° (E) 18:16:41 437.568
ISS 15 Dec 18:09:45 18:12:24 23° 226° (SW) 18:15:04 437.550
PCSat 15 Dec 18:15:14 18:20:39 87° 301° (WNW) 18:26:07 145.827
BEESAT 3 15 Dec 18:15:56 18:17:44 13° 109° (ESE) 18:19:33 437.485
XW-2F 15 Dec 18:16:54 18:18:14 12° 270° (W) 18:19:35 145.980 - 146.000
STARS 15 Dec 18:18:21 18:22:28 42° 289° (WNW) 18:26:33 437.465
O/OREOS (USA 219) 15 Dec 18:25:55 18:29:50 30° 256° (WSW) 18:33:43 437.305
UWE-3 15 Dec 18:47:04 18:51:12 69° 259° (W) 18:55:20 435.000/436.395/437.385
CUBEBUG 2 15 Dec 18:50:09 18:53:59 34° 262° (W) 18:57:49 437.445
HO-68 15 Dec 18:54:49 19:01:12 34° 264° (W) 19:07:39 435.675
SEEDS 15 Dec 19:01:56 19:05:28 26° 265° (W) 19:09:02 437.485
ZACube-1 15 Dec 19:09:34 19:13:41 76° 258° (WSW) 19:17:51 437.345
RS-15 15 Dec 19:09:36 19:18:43 23° 4° (N) 19:27:33 29.354- 29.394
AAUSAT CUBESAT 2 15 Dec 19:16:53 19:20:48 39° 262° (W) 19:24:46 437.432
Oscar 11 15 Dec 19:27:00 19:31:19 85° 259° (W) 19:35:40 .
FO-29 15 Dec 19:28:17 19:34:30 37° 94° (E) 19:40:02 435.910
XW-2A 15 Dec 19:39:22 19:41:28 16° 267° (W) 19:43:36 145.665 - 145.685
AO-73 15 Dec 19:43:16 19:47:03 35° 263° (W) 19:50:52 145.935
STRAND 1 15 Dec 19:47:40 19:52:36 51° 289° (WNW) 19:57:31 437.568
BEESAT 3 15 Dec 19:50:51 19:54:46 57° 305° (NW) 19:58:44 437.485
PCSat 15 Dec 20:01:28 20:04:51 16° 319° (NW) 20:08:15 145.827
Max Valier Satellite 15 Dec 20:04:06 20:07:18 29° 71° (ENE) 20:10:31 145.860
DELFI C3 15 Dec 20:07:46 20:11:38 52° 74° (ENE) 20:15:32 145.870
TIGRISAT 15 Dec 20:24:15 20:26:23 13° 91° (E) 20:28:32 435.000
UNISAT 6 15 Dec 20:27:21 20:30:05 16° 92° (E) 20:32:50 437.425
EO-88 15 Dec 20:29:05 20:32:30 40° 73° (ENE) 20:35:57 145.990 - 145.960
BEESAT 2 15 Dec 20:33:29 20:37:29 74° 304° (NW) 20:41:33 435.950
LO-87 15 Dec 20:58:27 20:59:29 11° 65° (ENE) 21:00:32 145.935 - 145.965
FALCONSAT 3 15 Dec 21:00:20 21:02:26 15° 159° (SSE) 21:04:33 435.103
AO-85 15 Dec 21:09:48 21:13:38 63° 120° (ESE) 21:17:42 145.980
FO-29 15 Dec 21:13:16 21:19:33 38° 295° (WNW) 21:25:09 435.910
RS-15 15 Dec 21:24:39 21:35:45 41° 37° (NE) 21:46:16 29.354- 29.394
Max Valier Satellite 15 Dec 21:38:40 21:41:09 17° 267° (W) 21:43:39 145.860
ESTCUBE 1 15 Dec 21:44:49 21:48:56 36° 70° (ENE) 21:53:06 437.505/2401.250
DELFI C3 15 Dec 21:45:06 21:46:40 12° 270° (W) 21:48:14 145.870
TIGRISAT 15 Dec 21:59:07 22:03:22 56° 287° (WNW) 22:07:42 435.000
UNISAT 6 15 Dec 22:02:49 22:07:00 46° 287° (WNW) 22:11:14 437.425
EO-88 15 Dec 22:04:42 22:06:19 12° 269° (W) 22:07:57 145.990 - 145.960
SPROUT 15 Dec 22:09:28 22:12:01 16° 64° (ENE) 22:14:33 437.525
BEESAT 2 15 Dec 22:14:52 22:15:56 11° 323° (NW) 22:17:01 435.950
PRISM 15 Dec 22:18:53 22:23:00 75° 103° (ESE) 22:27:03 437.425
EO-79 15 Dec 22:27:37 22:28:21 10° 89° (E) 22:29:05 145.935-145.965
LO-87 15 Dec 22:29:02 22:32:28 47° 261° (W) 22:35:53 145.935 - 145.965
FALCONSAT 3 15 Dec 22:37:44 22:40:56 28° 173° (S) 22:44:08 435.103
SO-50 15 Dec 22:47:41 22:52:02 36° 50° (NE) 22:56:23 436.795
POLYITAN 1 15 Dec 22:48:56 22:51:58 19° 93° (E) 22:55:01 437.675
AO-85 15 Dec 22:52:02 22:54:30 16° 320° (NW) 22:57:04 145.980
AIST 2D 15 Dec 22:56:03 22:59:37 82° 103° (ESE) 23:03:09 435.315
VELOX 1 15 Dec 23:12:33 23:16:48 46° 72° (ENE) 23:21:04 145.980
QB50P2 15 Dec 23:14:01 23:18:01 40° 98° (E) 23:22:00 145.880/145.840
DUCHIFAT 1 15 Dec 23:17:14 23:20:55 29° 97° (E) 23:24:36 145.980
ESTCUBE 1 15 Dec 23:22:20 23:25:49 22° 266° (W) 23:29:19 437.505/2401.250
RS-15 15 Dec 23:37:28 23:49:08 72° 244° (WSW) 00:00:11 29.354- 29.394
SPROUT 15 Dec 23:43:24 23:47:30 48° 261° (W) 23:51:36 437.525
NANOSAT C BR1 15 Dec 23:44:04 23:48:17 71° 103° (ESE) 23:52:29 145.865
UKube-1 15 Dec 23:47:34 23:50:05 15° 63° (ENE) 23:52:35 .
BUGSAT 1 15 Dec 23:53:21 23:56:00 17° 93° (E) 23:58:39 437.445
PRISM 15 Dec 23:57:19 23:57:37 10° 299° (WNW) 23:57:55 437.425
EO-79 16 Dec 00:00:20 00:04:32 66° 285° (WNW) 00:08:43 145.935-145.965
DX 1 16 Dec 00:04:21 00:08:22 36° 69° (ENE) 00:12:22 434.975-435.025
Oscar 19 16 Dec 00:10:13 00:13:40 18° 92° (E) 00:17:07 437.125/150
FALCONSAT 3 16 Dec 00:16:24 00:19:34 27° 189° (S) 00:22:43 435.103
POLYITAN 1 16 Dec 00:23:58 00:27:51 36° 289° (WNW) 00:31:43 437.675
SO-50 16 Dec 00:28:22 00:32:22 28° 246° (WSW) 00:36:24 436.795
AO-91 16 Dec 00:39:47 00:42:36 23° 96° (E) 00:45:21 145.960
50 SAT 16 Dec 00:46:32 00:49:40 63° 258° (WSW) 00:52:50 437.505
ITUPSAT 1 16 Dec 00:48:57 00:50:27 11° 59° (ENE) 00:51:57 437.325
VELOX 1 16 Dec 00:50:35 00:53:28 17° 268° (W) 00:56:21 145.980
QB50P2 16 Dec 00:50:36 00:53:29 18° 295° (WNW) 00:56:22 145.880/145.840
DUCHIFAT 1 16 Dec 00:53:05 00:56:26 23° 292° (WNW) 00:59:46 145.980
Gurwin Techsat 1B 16 Dec 01:01:42 01:06:41 39° 98° (E) 01:11:38 435.225
YUBILEINY 16 Dec 01:19:31 01:26:40 29° 82° (E) 01:33:50 435.215
PCSat 16 Dec 01:20:54 01:24:01 15° 39° (NE) 01:27:07 145.827
MOZHAYETS 4 16 Dec 01:21:05 01:25:05 31° 69° (ENE) 01:29:07
UKube-1 16 Dec 01:21:27 01:25:40 52° 260° (W) 01:29:54 .
NANOSAT C BR1 16 Dec 01:22:11 01:23:23 11° 298° (WNW) 01:24:35 145.865
BUGSAT 1 16 Dec 01:27:44 01:31:28 37° 289° (WNW) 01:35:14 437.445
DX 1 16 Dec 01:41:19 01:44:37 21° 266° (W) 01:47:56 434.975-435.025
AO-7 16 Dec 01:44:30 01:49:52 18° 90° (E) 01:55:12 .
Oscar 19 16 Dec 01:48:14 01:53:20 57° 288° (WNW) 01:58:25 437.125/150
RS-15 16 Dec 01:53:29 01:59:08 15° 265° (W) 02:04:41 29.354- 29.394
BEESAT 16 Dec 01:53:41 01:58:15 49° 71° (ENE) 02:02:50 436.000
FALCONSAT 3 16 Dec 01:56:18 01:58:01 13° 203° (SSW) 01:59:44 435.103
AO-91 16 Dec 02:16:37 02:18:57 17° 293° (WNW) 02:21:15 145.960
M-CUBED/EXP-1 PRIME 16 Dec 02:21:20 02:23:37 14° 94° (E) 02:25:51 437.505
ITUPSAT 1 16 Dec 02:22:47 02:27:32 87° 254° (WSW) 02:32:20 437.325
BEESAT 3 16 Dec 02:31:28 02:32:49 11° 38° (NE) 02:34:09 437.485
Gurwin Techsat 1B 16 Dec 02:42:00 02:46:26 28° 295° (WNW) 02:50:51 435.225
CUBESAT XI-V 16 Dec 02:47:29 02:52:04 60° 73° (ENE) 02:56:42 437.345
MOZHAYETS 4 16 Dec 02:58:27 03:02:13 25° 265° (W) 03:06:01
KKS-1 16 Dec 03:01:20 03:04:15 17° 64° (ENE) 03:07:12 437.445
PCSat 16 Dec 03:02:52 03:08:19 78° 59° (ENE) 03:13:43 145.827
ITAMSAT 1 16 Dec 03:03:31 03:08:24 41° 98° (E) 03:13:15 435.822/435.867
YUBILEINY 16 Dec 03:14:06 03:22:48 63° 282° (WNW) 03:31:36 435.215
BEESAT 2 16 Dec 03:15:44 03:16:13 10° 36° (NE) 03:16:42 435.950
BEESAT 16 Dec 03:33:06 03:36:17 18° 268° (W) 03:39:27 436.000
AO-7 16 Dec 03:35:12 03:43:39 89° 108° (ESE) 03:52:02 .
DOVE 4 16 Dec 03:36:10 03:38:48 15° 90° (E) 03:41:22 437.250
STARS 16 Dec 03:40:01 03:42:55 17° 64° (ENE) 03:45:48 437.465
M-CUBED/EXP-1 PRIME 16 Dec 03:53:57 03:58:23 57° 292° (WNW) 04:02:31 437.505
AO-85 16 Dec 04:01:15 04:03:06 12° 36° (NE) 04:05:01 145.980
BEESAT 3 16 Dec 04:07:02 04:10:59 85° 59° (ENE) 04:14:51 437.485
CUBESAT XI-V 16 Dec 04:27:24 04:29:49 14° 270° (W) 04:32:16 437.345
KKS-1 16 Dec 04:36:07 04:40:26 48° 260° (W) 04:44:46 437.445
CUTE-I 16 Dec 04:42:08 04:44:29 13° 89° (E) 04:46:49 437.470
ITAMSAT 1 16 Dec 04:43:26 04:47:38 25° 295° (WNW) 04:51:49 435.822/435.867
PCSat 16 Dec 04:48:14 04:50:59 14° 257° (WSW) 04:53:44 145.827
BEESAT 2 16 Dec 04:50:41 04:54:42 68° 55° (NE) 04:58:40 435.950
NO-84 16 Dec 05:04:11 05:06:40 25° 129° (SE) 05:09:18 435.350 FM
LilacSat-2 16 Dec 05:07:11 05:10:31 27° 96° (E) 05:13:50 437.200
DOVE 4 16 Dec 05:12:32 05:16:48 45° 289° (WNW) 05:20:52 437.250
STARS 16 Dec 05:14:40 05:18:53 46° 260° (W) 05:23:07 437.465
NUDT-PHONESAT 16 Dec 05:17:03 05:19:58 21° 94° (E) 05:22:53 437.300
YUBILEINY 16 Dec 05:18:18 05:21:42 12° 305° (NW) 05:25:07 435.215
XW-2D 16 Dec 05:19:09 05:22:43 35° 98° (E) 05:26:15 145.860 - 145.880
KAITUO 1B 16 Dec 05:23:25 05:26:42 27° 96° (E) 05:29:56 145.475/437.950
STRAND 1 16 Dec 05:25:26 05:29:46 29° 66° (ENE) 05:34:06 437.568
AO-7 16 Dec 05:29:19 05:35:22 23° 309° (NW) 05:41:25 .
XW-2B 16 Dec 05:34:56 05:38:43 53° 100° (E) 05:42:28 145.730 - 145.750
CUTE 1.7 + AOD 2 16 Dec 05:36:27 05:38:49 14° 91° (E) 05:41:10 437.475
AO-85 16 Dec 05:39:38 05:44:23 62° 55° (NE) 05:49:29 145.980
FO-29 16 Dec 05:40:07 05:45:49 23° 58° (ENE) 05:51:29 435.910
XW-2F 16 Dec 05:45:32 05:49:22 69° 101° (E) 05:53:10 145.980 - 146.000
XW-2C 16 Dec 06:02:25 06:06:16 66° 284° (WNW) 06:10:04 145.795 - 145.815
CUTE-I 16 Dec 06:19:47 06:25:07 79° 286° (WNW) 06:30:25 437.470
HO-68 16 Dec 06:21:10 06:28:04 48° 100° (E) 06:34:54 435.675
BEESAT 2 16 Dec 06:30:58 06:31:49 11° 252° (WSW) 06:32:40 435.950
UWE-3 16 Dec 06:36:21 06:39:47 22° 94° (E) 06:43:17 435.000/436.395/437.385
CUBEBUG 2 16 Dec 06:39:40 06:43:45 43° 99° (E) 06:47:57 437.445
NO-84 16 Dec 06:41:06 06:43:49 28° 329° (NNW) 06:46:43 435.350 FM
LilacSat-2 16 Dec 06:41:37 06:44:38 22° 292° (WNW) 06:47:38 437.200
SEEDS 16 Dec 06:44:26 06:48:35 49° 99° (E) 06:52:40 437.485
NUDT-PHONESAT 16 Dec 06:50:38 06:53:46 25° 290° (WNW) 06:56:53 437.300
XW-2D 16 Dec 06:54:05 06:56:35 17° 294° (WNW) 06:59:06 145.860 - 145.880
KAITUO 1B 16 Dec 06:57:37 07:00:30 21° 292° (WNW) 07:03:21 145.475/437.950
ZACube-1 16 Dec 06:57:46 07:01:03 20° 93° (E) 07:04:23 437.345
AAUSAT CUBESAT 2 16 Dec 06:58:31 07:02:10 29° 96° (E) 07:05:48 437.432
O/OREOS (USA 219) 16 Dec 06:59:08 07:03:05 29° 104° (ESE) 07:07:01 437.305
XW-2A 16 Dec 06:59:11 07:02:09 27° 96° (E) 07:05:06 145.665 - 145.685
STRAND 1 16 Dec 07:04:09 07:08:49 35° 263° (W) 07:13:30 437.568
CUTE 1.7 + AOD 2 16 Dec 07:10:45 07:14:54 49° 287° (WNW) 07:19:02 437.475
XW-2B 16 Dec 07:10:56 07:12:24 12° 296° (WNW) 07:13:53 145.730 - 145.750
Oscar 11 16 Dec 07:14:51 07:17:47 18° 92° (E) 07:20:42 .
AO-85 16 Dec 07:21:09 07:24:28 18° 249° (WSW) 07:27:52 145.980
FO-29 16 Dec 07:22:07 07:29:54 86° 256° (WSW) 07:37:47 435.910
TIGRISAT 16 Dec 07:24:02 07:25:49 12° 63° (ENE) 07:27:34 435.000
UNISAT 6 16 Dec 07:27:06 07:29:29 15° 64° (ENE) 07:31:53 437.425
AO-73 16 Dec 07:30:01 07:34:09 39° 98° (E) 07:38:20 145.935
CUTE-I 16 Dec 08:02:46 08:04:15 11° 304° (WNW) 08:05:44 437.470
HO-68 16 Dec 08:09:16 08:15:34 35° 298° (WNW) 08:21:50 435.675
UWE-3 16 Dec 08:12:23 08:16:16 33° 289° (WNW) 08:20:13 435.000/436.395/437.385
CUBEBUG 2 16 Dec 08:17:12 08:20:04 18° 294° (WNW) 08:22:58 437.445
SEEDS 16 Dec 08:21:21 08:23:50 15° 296° (WNW) 08:26:18 437.485
NO-84 16 Dec 08:21:25 08:22:02 10° 350° (N) 08:22:38 435.350 FM
XW-2A 16 Dec 08:32:21 08:34:37 17° 292° (WNW) 08:36:54 145.665 - 145.685
ZACube-1 16 Dec 08:33:23 08:37:24 37° 289° (WNW) 08:41:30 437.345
AAUSAT CUBESAT 2 16 Dec 08:34:10 08:37:28 23° 292° (WNW) 08:40:44 437.432
